Weather in Vazh Ezhva

Russia / Komi Republic     61°38′14″N   54°54′43″E
temp.,
°C
wind,
m/s
gust,
m/s
humid.,
%
clouds,
%
prec.,
mm/h
press.,
hPa
HPBL,
m
6 may, thu
thu600:00+3w389388 0.0 998427
03:00+3w3790100 0.0 999440
06:00+2wnw51097100 0.2 1000612
09:00+2w697889 0.3 10031169
12:00+3wnw51067100 0.1 10071481
15:00+6w51155100 0.2 10081975
18:00+6w5105340 0.0 10091352
21:00+2wsw310725 0.0 1010229
7 may, fri
fri700:00+1wsw228279 0.0 101119
03:00+3sse2276100 0.0 101258
06:00+3se3685100 0.5 1011184
09:00+11ssw377346 0.6 1010588
12:00+15sw486474 0.2 10091334
15:00+16sw4105990 0.8 10101504
18:00+14s1371100 0.2 101047
21:00+10sse31086100 0.3 1011241
8 may, sat
sat800:00+10s31184100 0.0 1010358
03:00+9wsw51091100 0.7 1011726
06:00+8w498240 1.1 1015915
09:00+12w46565 1.1 10171400
12:00+15w35395 0.0 10181906
15:00+15wsw34365 0.0 10182034
18:00+14s11487 0.0 101811
21:00+9se226316 0.0 101927
9 may, sun
sun900:00+7se257433 0.0 101988
03:00+6se311748 0.0 1019213
06:00+11se41361100 0.0 1018458
09:00+16sse6104764 0.0 10171026
12:00+19s6104360 0.0 10162214
15:00+20sse51142100 0.0 10152404
18:00+18s51149100 0.0 1015765
21:00+15s41361100 0.0 1015571
10 may, mon
mon1000:00+13s3970100 0.0 1015279
03:00+10wnw3689100 0.0 1017303
06:00+7wnw4990100 1.4 1020588
09:00+6wnw3688100 5.3 1023912
12:00+8wnw3669100 0.1 10241179
15:00+12nw35445 0.1 10251757
18:00+11w23495 0.0 102582
21:00+6wsw22635 0.0 102629